FLOCK 3P-39 (42038 NORAD) Tracking and Keplerian Element Data

This shows tracking and keplerian element data for the satellite.

Feedback or suggestion? Click here.




ElementValue
Catalog42038
NameFLOCK 3P-39
Epoch Orbit17365
Epoch Day91.90258456
Epoch Year2020
RAAN160.6015
Inclination97.3705
Eccentricity0.0006223
Argument of Perigee220.7343
Mean Anonmoly139.3431
Mean Motion15.261418
Decay Rate1.695E-05
L11 42038U 17008CU 20091.90258456 .00001695 00000-0 68430-4 0 9990
L22 42038 97.3705 160.6015 0006223 220.7343 139.3431 15.26141800173657

Live tracking and technical data element details for FLOCK 3P-39 (NORAD 42038). FLOCK 3P-39 can be tracked NOW for your location showing map with azimuth and elevation plus other details from your city location.

Track the satellite on the map from your city or location and see movement details for azimuth, elevation, latitude, longitude, range, height, and movement on the map or in text.







IsCatalogInMostPopularTable: catalog: 42038, numindb: 328
Update: records affected: 1



GetName: 42038 FLOCK 3P-39

Hit Count: updated at: Thu, 02 Apr 2020 04:28:39 GMT